Time,TemperatureF,DewpointF,PressureIn,WindDirection,WindDirectionDegrees,WindSpeedMPH,WindSpeedGustMPH,Humidity,HourlyPrecipIn,Conditions,Clouds,dailyrainin,SolarRadiationWatts/m^2,SoftwareType,DateUTC
2013-05-10 00:02:00,40.0,31.0,-100.00,NE,36,2.0,6.0,69,0.00,,,0.00,1.000000,,2013-05-10 08:02:00,
2013-05-10 00:12:00,40.0,31.0,-100.00,NE,36,2.0,6.0,69,0.00,,,0.00,1.000000,,2013-05-10 08:12:00,
2013-05-10 00:21:00,40.0,31.0,-100.00,NE,36,2.0,6.0,69,0.00,,,0.00,1.000000,,2013-05-10 08:21:00,
2013-05-10 00:52:00,35.0,29.0,-100.00,NNE,12,0.0,3.0,79,0.00,,,0.00,0.000000,,2013-05-10 08:52:00,
2013-05-10 01:01:00,35.0,29.0,-100.00,NNE,12,0.0,3.0,79,0.00,,,0.00,0.000000,,2013-05-10 09:01:00,
2013-05-10 01:11:00,35.0,29.0,-100.00,NNE,12,0.0,3.0,79,0.00,,,0.00,0.000000,,2013-05-10 09:11:00,
2013-05-10 01:21:00,35.0,29.0,-100.00,NNE,12,0.0,3.0,79,0.00,,,0.00,0.000000,,2013-05-10 09:21:00,
2013-05-10 01:52:00,33.0,28.0,-100.00,SSE,164,0.0,0.0,82,0.00,,,0.00,0.000000,,2013-05-10 09:52:00,
2013-05-10 02:02:00,33.0,28.0,-100.00,SSE,164,0.0,0.0,82,0.00,,,0.00,0.000000,,2013-05-10 10:02:00,
2013-05-10 02:12:00,33.0,28.0,-100.00,SSE,164,0.0,0.0,82,0.00,,,0.00,0.000000,,2013-05-10 10:12:00,
2013-05-10 02:23:00,33.0,28.0,-100.00,SSE,164,0.0,0.0,82,0.00,,,0.00,0.000000,,2013-05-10 10:23:00,
2013-05-10 02:52:00,32.0,28.0,-100.00,South,175,0.0,3.0,84,0.00,,,0.00,0.000000,,2013-05-10 10:52:00,
2013-05-10 03:02:00,32.0,28.0,-100.00,South,175,0.0,3.0,84,0.00,,,0.00,0.000000,,2013-05-10 11:02:00,
2013-05-10 03:12:00,32.0,28.0,-100.00,South,175,0.0,3.0,84,0.00,,,0.00,0.000000,,2013-05-10 11:12:00,
2013-05-10 03:21:00,32.0,28.0,-100.00,South,175,0.0,3.0,84,0.00,,,0.00,0.000000,,2013-05-10 11:21:00,
2013-05-10 05:52:00,28.0,25.0,-100.00,NE,56,2.0,3.0,90,-99.99,,,0.00,0.000000,,2013-05-10 13:52:00,
2013-05-10 06:02:00,28.0,25.0,-100.00,NE,56,2.0,3.0,90,-99.99,,,0.00,0.000000,,2013-05-10 14:02:00,
2013-05-10 06:11:00,28.0,25.0,-100.00,NE,56,2.0,3.0,90,-99.99,,,0.00,0.000000,,2013-05-10 14:11:00,
2013-05-10 06:21:00,28.0,25.0,-100.00,NE,56,2.0,3.0,90,-99.99,,,0.00,0.000000,,2013-05-10 14:21:00,
2013-05-10 06:52:00,29.0,27.0,-100.00,NE,35,2.0,3.0,91,0.00,,,0.00,13.000000,,2013-05-10 14:52:00,
2013-05-10 07:01:00,29.0,27.0,-100.00,NE,35,2.0,3.0,91,0.00,,,0.00,13.000000,,2013-05-10 15:01:00,
2013-05-10 07:20:00,-999.0,-99.9,-100.00,NE,35,2.0,3.0,91,0.00,,,0.00,13.000000,,2013-05-10 15:20:00,
2013-05-10 07:53:00,32.0,28.0,-100.00,ENE,60,0.0,3.0,86,0.00,,,0.00,77.000000,,2013-05-10 15:53:00,
2013-05-10 08:02:00,32.0,28.0,-100.00,ENE,60,0.0,3.0,86,0.00,,,0.00,77.000000,,2013-05-10 16:02:00,
2013-05-10 08:12:00,32.0,28.0,-100.00,ENE,60,0.0,3.0,86,0.00,,,0.00,77.000000,,2013-05-10 16:12:00,
2013-05-10 08:23:00,32.0,28.0,-100.00,ENE,60,0.0,3.0,86,0.00,,,0.00,77.000000,,2013-05-10 16:23:00,
2013-05-10 08:52:00,42.0,33.0,-100.00,NE,35,2.0,4.0,69,0.00,,,0.00,196.000000,,2013-05-10 16:52:00,
2013-05-10 09:02:00,42.0,33.0,-100.00,NE,35,2.0,4.0,69,0.00,,,0.00,196.000000,,2013-05-10 17:02:00,
2013-05-10 09:12:00,42.0,33.0,-100.00,NE,35,2.0,4.0,69,0.00,,,0.00,196.000000,,2013-05-10 17:12:00,
2013-05-10 09:21:00,42.0,33.0,-100.00,NE,35,2.0,4.0,69,0.00,,,0.00,196.000000,,2013-05-10 17:21:00,
2013-05-10 09:52:00,49.0,30.0,-100.00,NE,51,5.0,10.0,48,0.00,,,0.00,335.000000,,2013-05-10 17:52:00,
2013-05-10 10:10:00,-999.0,-99.9,-100.00,NE,51,5.0,10.0,48,0.00,,,0.00,335.000000,,2013-05-10 18:10:00,
2013-05-10 10:21:00,49.0,30.0,-100.00,NE,51,5.0,10.0,48,0.00,,,0.00,335.000000,,2013-05-10 18:21:00,
2013-05-10 10:54:00,52.0,30.0,-100.00,NNE,20,4.0,11.0,43,0.00,,,0.00,436.000000,,2013-05-10 18:54:00,
2013-05-10 11:02:00,52.0,30.0,-100.00,NNE,20,4.0,11.0,43,0.00,,,0.00,436.000000,,2013-05-10 19:02:00,
2013-05-10 11:11:00,52.0,30.0,-100.00,NNE,20,4.0,11.0,43,0.00,,,0.00,436.000000,,2013-05-10 19:11:00,
2013-05-10 11:21:00,52.0,30.0,-100.00,NNE,20,4.0,11.0,43,0.00,,,0.00,436.000000,,2013-05-10 19:21:00,
2013-05-10 11:52:00,54.0,31.0,-100.00,NE,47,5.0,10.0,41,0.00,,,0.00,433.000000,,2013-05-10 19:52:00,
2013-05-10 12:01:00,54.0,31.0,-100.00,NE,47,5.0,10.0,41,0.00,,,0.00,433.000000,,2013-05-10 20:01:00,
2013-05-10 12:11:00,54.0,31.0,-100.00,NE,47,5.0,10.0,41,0.00,,,0.00,433.000000,,2013-05-10 20:11:00,
2013-05-10 12:21:00,54.0,31.0,-100.00,NE,47,5.0,10.0,41,0.00,,,0.00,433.000000,,2013-05-10 20:21:00,
2013-05-10 12:52:00,57.0,31.0,-100.00,NNE,31,4.0,9.0,37,0.00,,,0.00,503.000000,,2013-05-10 20:52:00,
2013-05-10 13:01:00,57.0,31.0,-100.00,NNE,31,4.0,9.0,37,0.00,,,0.00,503.000000,,2013-05-10 21:01:00,
2013-05-10 13:11:00,57.0,31.0,-100.00,NNE,31,4.0,9.0,37,0.00,,,0.00,503.000000,,2013-05-10 21:11:00,
2013-05-10 13:24:00,57.0,31.0,-100.00,NNE,31,4.0,9.0,37,0.00,,,0.00,503.000000,,2013-05-10 21:24:00,
2013-05-10 13:52:00,58.0,31.0,-100.00,North,1,4.0,10.0,36,0.00,,,0.00,497.000000,,2013-05-10 21:52:00,
2013-05-10 14:02:00,58.0,31.0,-100.00,North,1,4.0,10.0,36,0.00,,,0.00,497.000000,,2013-05-10 22:02:00,
2013-05-10 14:12:00,58.0,31.0,-100.00,North,1,4.0,10.0,36,0.00,,,0.00,497.000000,,2013-05-10 22:12:00,
2013-05-10 14:22:00,58.0,31.0,-100.00,North,1,4.0,10.0,36,0.00,,,0.00,497.000000,,2013-05-10 22:22:00,
2013-05-10 14:52:00,59.0,29.0,-100.00,NNE,20,4.0,9.0,32,0.00,,,0.00,411.000000,,2013-05-10 22:52:00,
2013-05-10 15:02:00,59.0,29.0,-100.00,NNE,20,4.0,9.0,32,0.00,,,0.00,411.000000,,2013-05-10 23:02:00,
2013-05-10 15:12:00,59.0,29.0,-100.00,NNE,20,4.0,9.0,32,0.00,,,0.00,411.000000,,2013-05-10 23:12:00,
2013-05-10 15:22:00,59.0,29.0,-100.00,NNE,20,4.0,9.0,32,0.00,,,0.00,411.000000,,2013-05-10 23:22:00,
2013-05-10 15:52:00,61.0,29.0,-100.00,NNE,26,3.0,9.0,30,0.00,,,0.00,470.000000,,2013-05-10 23:52:00,
2013-05-10 16:01:00,61.0,29.0,-100.00,NNE,26,3.0,9.0,30,0.00,,,0.00,470.000000,,2013-05-11 00:01:00,
2013-05-10 16:11:00,61.0,29.0,-100.00,NNE,26,3.0,9.0,30,0.00,,,0.00,470.000000,,2013-05-11 00:11:00,
2013-05-10 16:21:00,61.0,29.0,-100.00,NNE,26,3.0,9.0,30,0.00,,,0.00,470.000000,,2013-05-11 00:21:00,
2013-05-10 16:52:00,61.0,30.0,-100.00,NNE,17,4.0,10.0,31,0.00,,,0.00,425.000000,,2013-05-11 00:52:00,
2013-05-10 17:01:00,61.0,30.0,-100.00,NNE,17,4.0,10.0,31,0.00,,,0.00,425.000000,,2013-05-11 01:01:00,
2013-05-10 17:11:00,61.0,30.0,-100.00,NNE,17,4.0,10.0,31,0.00,,,0.00,425.000000,,2013-05-11 01:11:00,
2013-05-10 17:21:00,61.0,30.0,-100.00,NNE,17,4.0,10.0,31,0.00,,,0.00,425.000000,,2013-05-11 01:21:00,
2013-05-10 17:52:00,62.0,32.0,-100.00,North,353,5.0,10.0,32,0.00,,,0.00,458.000000,,2013-05-11 01:52:00,
2013-05-10 18:02:00,62.0,32.0,-100.00,North,353,5.0,10.0,32,0.00,,,0.00,458.000000,,2013-05-11 02:02:00,
2013-05-10 18:11:00,62.0,32.0,-100.00,North,353,5.0,10.0,32,0.00,,,0.00,458.000000,,2013-05-11 02:11:00,
2013-05-10 18:21:00,62.0,32.0,-100.00,North,353,5.0,10.0,32,0.00,,,0.00,458.000000,,2013-05-11 02:21:00,
2013-05-10 18:52:00,62.0,31.0,-100.00,North,1,4.0,13.0,31,0.00,,,0.00,472.000000,,2013-05-11 02:52:00,
2013-05-10 19:01:00,62.0,31.0,-100.00,North,1,4.0,13.0,31,0.00,,,0.00,472.000000,,2013-05-11 03:01:00,
2013-05-10 19:11:00,62.0,31.0,-100.00,North,1,4.0,13.0,31,0.00,,,0.00,472.000000,,2013-05-11 03:11:00,
2013-05-10 19:21:00,62.0,31.0,-100.00,North,1,4.0,13.0,31,0.00,,,0.00,472.000000,,2013-05-11 03:21:00,
2013-05-10 19:53:00,59.0,31.0,-100.00,NNE,13,5.0,12.0,35,0.00,,,0.00,184.000000,,2013-05-11 03:53:00,
2013-05-10 20:02:00,59.0,31.0,-100.00,NNE,13,5.0,12.0,35,0.00,,,0.00,184.000000,,2013-05-11 04:02:00,
2013-05-10 20:12:00,59.0,31.0,-100.00,NNE,13,5.0,12.0,35,0.00,,,0.00,184.000000,,2013-05-11 04:12:00,
2013-05-10 20:23:00,59.0,31.0,-100.00,NNE,13,5.0,12.0,35,0.00,,,0.00,184.000000,,2013-05-11 04:23:00,
2013-05-10 20:52:00,57.0,30.0,-100.00,NNE,26,6.0,10.0,36,0.00,,,-99.99,164.000000,,2013-05-11 04:52:00,
2013-05-10 21:02:00,57.0,30.0,-100.00,NNE,26,6.0,10.0,36,0.00,,,-99.99,164.000000,,2013-05-11 05:02:00,
2013-05-10 21:12:00,57.0,30.0,-100.00,NNE,26,6.0,10.0,36,0.00,,,-99.99,164.000000,,2013-05-11 05:12:00,
2013-05-10 21:21:00,57.0,30.0,-100.00,NNE,26,6.0,10.0,36,0.00,,,-99.99,164.000000,,2013-05-11 05:21:00,
2013-05-10 21:52:00,54.0,30.0,-100.00,NNE,18,4.0,12.0,40,0.00,,,0.00,71.000000,,2013-05-11 05:52:00,
2013-05-10 22:02:00,54.0,30.0,-100.00,NNE,18,4.0,12.0,40,0.00,,,0.00,71.000000,,2013-05-11 06:02:00,
2013-05-10 22:12:00,54.0,30.0,-100.00,NNE,18,4.0,12.0,40,0.00,,,0.00,71.000000,,2013-05-11 06:12:00,
2013-05-10 22:21:00,54.0,30.0,-100.00,NNE,18,4.0,12.0,40,0.00,,,0.00,71.000000,,2013-05-11 06:21:00,
2013-05-10 22:52:00,53.0,29.0,-100.00,East,86,4.0,9.0,39,0.00,,,0.00,23.000000,,2013-05-11 06:52:00,
2013-05-10 23:01:00,53.0,29.0,-100.00,East,86,4.0,9.0,39,0.00,,,0.00,23.000000,,2013-05-11 07:01:00,
2013-05-10 23:11:00,53.0,29.0,-100.00,East,86,4.0,9.0,39,0.00,,,0.00,23.000000,,2013-05-11 07:11:00,
2013-05-10 23:21:00,53.0,29.0,-100.00,East,86,4.0,9.0,39,0.00,,,0.00,23.000000,,2013-05-11 07:21:00,
2013-05-10 23:52:00,51.0,34.0,-100.00,ENE,69,3.0,7.0,51,0.00,,,0.00,1.000000,,2013-05-11 07:52:00,